Content
SEND FEEDBACK

Daily
Averages
Monthly
Summary
United States of America

ALPINE MEADOWS, CALIFORNIA


Home > North America > United States > California
Elevation: 6230 feet     Latitude: 39 12N     Longitude: 120 14W

WEATHER
 
SELECT A DAY
Number of Records: 282,449;   Date Range: 1/1/95 - 8/28/14
 
SHARE

PRINT THIS DATA

[ ← Previous Day ]
WEATHER ALMANAC - NOVEMBER 23, 2013
[ Next Day → ]
[ °C ]   °F
Weather ElementAverageHighLow
Temperature23.9 °F41 °F (12:55 pm)15.8 °F (3:15 am)
Dewpoint10.4 °F14 °F (5:55 pm) (7:00 pm)
Humidity60.7 %79 % (11:55 pm)24 % (1:50 pm)
Barometer30.16 in30.19 in (7:55 am)30.13 in (1:50 pm)
Wind Speed4.5 mph13.8 mph (2:50 pm)
Wind Gust19.6 mph (11:55 am)
Weather ElementAverage
Visibility10 mi
Wind DirectionESE (123.9 °)

Weather ElementTotal
Precipitation---
Heating Degree Days36.6 (Base 65)
Averaged from 49 records on November 23, 2013
WEATHER CONDITIONS BREAKOUT
WIND DIRECTION BREAKOUT
WEATHER BY HOUR - NOVEMBER 23, 2013
[ °C ]   °F
Local TimeTemperatureDewpointHumidityBarometerVisibilityWind DirectionWind SpeedGust SpeedPrecipitationEventsConditions
12:35 AM21.2 °F10.4 °F63 %30.16 in10.0 miSE (130°)5.8 mphClear
12:55 AM19.4 °F10.4 °F68 %30.15 in10.0 miSE (130°)6.9 mphClear
1:15 AM19.4 °F10.4 °F68 %30.16 in10.0 miESE (120°)5.8 mphClear
1:35 AM17.6 °F10.4 °F73 %30.16 in10.0 miSE (140°)4.6 mphClear
1:55 AM17.6 °F10.4 °F73 %30.17 in10.0 miCalmClear
2:15 AM17.6 °F10.4 °F73 %30.17 in10.0 miSouth (170°)5.8 mphClear
2:35 AM19.4 °F10.4 °F68 %30.16 in10.0 miSouth (170°)6.9 mphClear
2:55 AM17.6 °F8.6 °F68 %30.17 in10.0 miSouth (190°)3.5 mphClear
3:15 AM15.8 °F8.6 °F73 %30.17 in10.0 miSSE (160°)8.1 mphClear
3:35 AM17.6 °F10.4 °F73 %30.17 in10.0 miCalmClear
3:55 AM17.6 °F10.4 °F73 %30.17 in10.0 miSSE (160°)3.5 mphClear
4:15 AM15.8 °F8.6 °F73 %30.17 in10.0 miSouth (180°)4.6 mphClear
4:35 AM15.8 °F8.6 °F73 %30.18 in10.0 miSE (130°)5.8 mphClear
4:55 AM17.6 °F10.4 °F73 %30.17 in10.0 miSSE (150°)3.5 mphClear
5:15 AM15.8 °F8.6 °F73 %30.17 in10.0 miSouth (170°)5.8 mphClear
5:35 AM19.4 °F10.4 °F68 %30.17 in10.0 miSE (140°)6.9 mphClear
6:45 AM17.6 °F10.4 °F73 %30.18 in10.0 miSouth (190°)8.1 mphClear
7:55 AM23.0 °F12.2 °F63 %30.19 in10.0 miSE (130°)4.6 mphClear
8:55 AM28.4 °F0.0 °F30.18 in10.0 miSE (140°)4.6 mphClear
9:45 AM33.8 °F6.8 °F32 %30.18 in10.0 miSouth (170°)3.5 mphClear
10:50 AM39.2 °F6.8 °F26 %30.17 in10.0 miNorth (350°)4.6 mphClear
11:55 AM39.2 °F6.8 °F26 %30.16 in10.0 miNorth (350°)10.4 mph19.6 mphClear
12:55 PM41.0 °F8.6 °F26 %30.15 in10.0 miNorth (10°)9.2 mph17.3 mphClear
1:50 PM41.0 °F6.8 °F24 %30.13 in10.0 miNNE (20°)12.7 mph16.1 mphClear
2:50 PM41.0 °F6.8 °F24 %30.13 in10.0 miNorth (10°)13.8 mph17.3 mphClear
3:50 PM39.2 °F6.8 °F26 %30.14 in10.0 miNNE (20°)9.2 mph18.4 mphClear
4:45 PM35.6 °F8.6 °F33 %30.14 in10.0 miNNE (20°)4.6 mphClear
4:55 PM35.6 °F8.6 °F33 %30.14 in10.0 miNorth (350°)3.5 mphClear
5:15 PM32.0 °F10.4 °F41 %30.14 in10.0 miEast (80°)3.5 mphClear
5:35 PM28.4 °F12.2 °F51 %30.14 in10.0 miSouth (180°)4.6 mphClear
5:55 PM26.6 °F14.0 °F59 %30.14 in10.0 miSSE (160°)3.5 mphClear
6:15 PM24.8 °F14.0 °F64 %30.14 in10.0 miSouth (180°)3.5 mphClear
6:35 PM24.8 °F14.0 °F64 %30.14 in10.0 miSSW (210°)4.6 mphClear
6:55 PM23.0 °F14.0 °F68 %30.15 in10.0 miCalmClear
7:15 PM23.0 °F14.0 °F68 %30.16 in10.0 miSouth (190°)4.6 mphClear
7:35 PM23.0 °F14.0 °F68 %30.16 in10.0 miCalmClear
7:55 PM21.2 °F14.0 °F74 %30.16 in10.0 miSE (140°)5.8 mphClear
8:15 PM23.0 °F14.0 °F68 %30.16 in10.0 miSSE (150°)3.5 mphClear
8:35 PM23.0 °F14.0 °F68 %30.17 in10.0 miSSW (200°)4.6 mphClear
8:55 PM21.2 °F12.2 °F68 %30.17 in10.0 miSSE (150°)3.5 mphClear
9:15 PM23.0 °F12.2 °F63 %30.17 in10.0 miSSE (160°)4.6 mphClear
9:35 PM21.2 °F12.2 °F68 %30.17 in10.0 miSSW (210°)3.5 mphClear
9:55 PM23.0 °F12.2 °F63 %30.17 in10.0 miCalmClear
10:15 PM19.4 °F10.4 °F68 %30.18 in10.0 miCalmClear
10:35 PM19.4 °F12.2 °F74 %30.18 in10.0 miSSE (160°)3.5 mphClear
10:55 PM17.6 °F10.4 °F73 %30.18 in10.0 miCalmClear
11:15 PM17.6 °F10.4 °F73 %30.18 in10.0 miCalmClear
11:35 PM19.4 °F12.2 °F74 %30.19 in10.0 miCalmClear
11:55 PM17.6 °F12.2 °F79 %30.19 in10.0 miCalmClear
Hourly data recorded from KTRK, located miles away from Alpine Meadows, California







STORIES FROM OUR PARTNERS